Regional Weather Roundup
Issued by NWS Midland/Odessa, TX

Skip options and go directly to product.
Home | Oldest Version | Next Version | Current Version | All | Text Only | Save Text | Print | Product List | Glossary On

Skip product version selection by date and time.   
841
ASUS44 KMAF 150302
RWRMAF
MIDLAND AREA WEATHER ROUNDUP
NATIONAL WEATHER SERVICE MIDLAND TX
1000 PM CDT MON APR 14 2014

...IN SOUTHWEST TEXAS AND SOUTHEAST NEW MEXICO...

CITY           SKY/WX    TMP DP  RH WIND       PRES   REMARKS
ALPINE         CLEAR     43  17  34 NE8       30.34R WCI  38
ANDREWS        FAIR      42  15  33 N8        30.31R WCI  38
ARTESIA        CLEAR     45  16  31 CALM      30.30R
BIG SPRING     CLEAR     46  14  28 N10       30.32R
CARLSBAD       CLEAR     46  17  31 NE6       30.30R
DRYDEN           N/A     55  19  24 N10       30.28R
FORT STOCKTON  CLEAR     46  17  31 N7        30.32R
GUAD PASS      CLEAR     36  16  44 NE29      30.26R WCI  23
HOBBS          CLEAR     37  14  38 NE6       30.33R WCI  33
MARFA          CLEAR     41  16  36 N16       30.30R WCI  33
MIDLAND AIRPK  CLEAR     47  16  28 N9        30.31R
MIDLAND INTL   CLEAR     45  17  32 N10       30.31R WCI  40
ODESSA         CLEAR     46  16  30 N10       30.32R
PECOS          CLEAR     47  19  31 NE7       30.33R
PRESIDIO       FAIR      56  19  23 NE17G26   30.23R
SEMINOLE       CLEAR     42  15  34 N5        30.33R WCI  39
SNYDER         CLEAR     45  13  27 N9        30.30R
WINK           CLEAR     47  17  30 NE6       30.31R
$$
...OTHER STATIONS IN TEXAS...

CITY           SKY/WX    TMP DP  RH WIND       PRES   REMARKS
ABILENE        CLEAR     47  15  27 N12       30.27R
AMARILLO       CLEAR     34  18  52 NW5       30.29R WCI  30
AUSTIN         CLEAR     50  36  58 N12       30.20R
BROWNSVILLE    CLOUDY    60  48  64 N14G23    30.08R
CORPUS CHRISTI MOCLDY    60  41  49 N18       30.12R
DALLAS FTW     CLEAR     46  30  53 N9        30.21R
DEL RIO        CLEAR     62  24  23 N15G23    30.23R
EL PASO        CLEAR     52  17  25 E16       30.22R
HOUSTON INT    PTCLDY    49  39  68 N16G29    30.11R
LUBBOCK        CLEAR     38  14  37 N8        30.31R WCI  32
SAN ANGELO     CLEAR     50  18  28 N12       30.27R
SAN ANTONIO    CLEAR     55  32  41 N12       30.19R
WACO           CLEAR     45  35  68 N7        30.22R
WICHITA FALLS  NOT AVBL
$$
...OTHER LOCATIONS IN NEW MEXICO...

CITY           SKY/WX    TMP DP  RH WIND       PRES   REMARKS
ALAMAGORDO     CLEAR     46  18  31 S7        30.21R
ALBUQUERQUE    CLEAR     51  13  21 S7        30.20R
CANNON AFB     NOT AVBL
CLOVIS         CLEAR     36  16  44 N5        30.31S WCI  32
HOLLOMAN AFB   PTCLDY    50  19  29 S13       30.21R
ROSWELL        CLEAR     42  17  36 SE3       30.30R
RUIDOSO        CLEAR     32  18  55 SE8       30.28R WCI  25
SANTA FE       CLEAR     39  24  55 SE9       30.20R WCI  33
TRUTH OR CONSE CLEAR     53  15  22 SE8       30.18R
TUCUMCARI      CLEAR     36  22  56 S7        30.27R WCI  30
$$

USA.gov is the U.S. government's official web portal to all federal, state and local government web resources and services.